Regional Weather Roundup
Issued by NWS Sterling, VA

Home | Current Version | Previous Version | Graphics & Text | Print | Product List | Glossary On
Versions: 1 2 3 4 5 6 7 8 9 10 11 12 13 14 15 16 17 18 19 20 21 22 23 24 25 26 27 28 29 30 31 32 33 34 35 36 37 38 39 40 41 42 43 44 45 46 47 48 49 50
696
ASUS41 KLWX 201210
RWRLWX

REGIONAL WEATHER ROUNDUP
NATIONAL WEATHER SERVICE BALTIMORE MD/WASHINGTON DC
700 AM EST FRI JAN 20 2017

Note: "FAIR" indicates few or no clouds below 12,000 feet
with no significant weather and/or obstructions to visibility.
 TC=TEMPERATURE CELSIUS

 * =Non NWS site. Station does not report precipitation (e.g. rain,
    snow, etc.), thunder, or fog.

DCZ001-MDZ009-015-VAZ040>042-051-053>054-201300-
WASHINGTON METRO

CITY           SKY/WX    TMP DP  RH WIND       PRES   REMARKS
WASHINGTON NAT CLOUDY    41  37  86 CALM      29.97F
DULLES         CLOUDY    40  36  86 E3        29.93F
ANDREWS AFB    CLOUDY    37  35  93 CALM      29.95F
FT BELVOIR     CLOUDY    37  35  94 CALM      29.95F
QUANTICO       CLOUDY    41  40  96 CALM      29.98F
COLLEGE PARK*  MOCLDY    36  34  93 N3        29.97F
LEESBURG*      CLOUDY    37  37 100 MISG      29.94F
MANASSAS*      CLOUDY   N/A N/A N/A CALM      29.97
GAITHERSBURG*  CLOUDY    37  32  81 E5        30.00F

$$

MDZ006>007-011-014-201300-
BALTIMORE METRO

CITY           SKY/WX    TMP DP  RH WIND       PRES   REMARKS
BWI AIRPORT    CLOUDY    35  35 100 E6        29.97F FOG
MD SCIENCE CTR   N/A     39  33  79 MISG      29.99S
MARTIN STATE   MOCLDY    36  36 100 CALM      30.01S
ANNAPOLIS      CLOUDY    37  35  92 CALM      29.98F
FORT MEADE*    CLOUDY    32  32 100 CALM      30.01S

$$

MDZ012-015-019>023-201300-
MARYLAND EASTERN SHORE

CITY           SKY/WX    TMP DP  RH WIND       PRES   REMARKS
OCEAN CITY     CLOUDY    35  35 100 CALM      30.01R FOG
SALISBURY      CLOUDY    34  33  96 CALM      30.00R
BAY BRIDGE AP* PTCLDY    36  36 100 SE5       29.99F FOG
CAMBRIDGE*     CLOUDY    32  32 100 CALM      29.99F
EASTON*        CLOUDY    36  34  93 CALM      30.04R

$$

MDZ017>025-201300-
SOUTHERN MARYLAND

CITY           SKY/WX    TMP DP  RH WIND       PRES   REMARKS
PATUXENT RIVER CLOUDY    38  37  97 SE5       29.98F
ST INIGOES     CLOUDY    37  36  96 CALM      29.97F
LEONARDTOWN*   CLOUDY    37  36  93 CALM      29.98F

$$

MDZ003>005-201300-
NORTH CENTRAL MARYLAND

CITY           SKY/WX    TMP DP  RH WIND       PRES   REMARKS
FREDERICK*     MOCLDY    32  32 100 CALM      29.99F FOG
HAGERSTOWN APT CLOUDY    35  31  85 CALM      29.91F
WESTMINSTER*     N/A     36  34  93 SE3       29.95F FOG

$$

MDZ501>502-201300-
WESTERN MARYLAND

CITY           SKY/WX    TMP DP  RH WIND       PRES   REMARKS
OAKLAND*         N/A     34  34 100 SE14      29.78S FOG     WCI  24
CUMBERLAND*    CLOUDY    34  34 100 CALM      29.92S

$$

VAZ025>031-201300-
SHENANDOAH VALLEY

CITY           SKY/WX    TMP DP  RH WIND       PRES   REMARKS
WINCHESTER*    CLOUDY    36  34  93 CALM      29.89S
FRONT ROYAL*   CLOUDY    37  36  93 CALM      29.89R
LURAY*         CLOUDY    39  39 100 S3        29.90R
NEW MARKET*    CLOUDY    39  37  92 CALM      29.90R
STAUNTON*      CLOUDY    41  39  93 CALM      29.90F
WAYNESBORO*    CLOUDY    43  37  79 SE7       29.88F

$$

WVZ021-048>050-054>055-201300-
EASTERN WEST VIRGINIA PANHANDLE

CITY           SKY/WX    TMP DP  RH WIND       PRES   REMARKS
MARTINSBURG    CLOUDY    37  34  89 N5        29.90F
PETERSBURG*    LGT RAIN  38  37  96 CALM      29.89S

$$

VAZ036>039-050-201300-
CENTRAL FOOTHILLS

CITY           SKY/WX    TMP DP  RH WIND       PRES   REMARKS
CHARLOTTESVILL CLOUDY    43  39  86 N3        29.91S
CULPEPER*      CLOUDY    40  38  93 CALM      29.97R
ORANGE*          N/A     41  41 100 CALM      29.98R
GORDONSVILLE*  CLOUDY    40  39  93 CALM      29.95R
WARRENTON*     CLOUDY    39  35  87 CALM      29.96R

$$

VAZ055>057-201300-
NORTH AND CENTRAL PIEDMONT

CITY           SKY/WX    TMP DP  RH WIND       PRES   REMARKS
FREDERICKSBRG* CLOUDY    40  40 100 CALM      29.96S
STAFFORD*      CLOUDY    36  36 100 CALM      30.02R

$$

NCZ024-NYZ072-PAZ021-071-VAZ022-071-201300-
OTHER REGIONAL OBSERVATIONS

CITY           SKY/WX    TMP DP  RH WIND       PRES   REMARKS
NEW YORK CITY  CLOUDY    40  31  70 E5        30.02S
PHILADELPHIA   MOCLDY    34  32  92 CALM      30.01S
PITTSBURGH     LGT RAIN  38  36  92 E5        29.73F
ROANOKE        HVY RAIN  45  42  89 SW6       29.95R FOG
RICHMOND       CLOUDY    43  40  89 S3        29.97R
RALEIGH        CLOUDY    48  43  82 SE5       29.94R

$$

ANZ530>537-201300-
MARINE OBSERVATIONS

STATION/POSITION TIME  TEMP    WIND        PRES
                       AIR SEA DIR/SP/G
                 (UTC) (F)     (DEG/KT/KT) (MB)
THOMAS PT LIGHT  1200   38 39  100/  5/  5   N/A
BALT KEY BRIDGE  1148   37      70/  3/  3 1015.6F
COVE POINT       1148   40     160/  6/  7 1015.6F
LEWISETTA        1148   41 43  130/  4/  4 1014.8F
SOLOMONS ISLAND  1148   40 41   80/  6/  6   N/A
PINEY POINT      1148          130/  6/  6   N/A

$$





USA.gov is the U.S. government's official web portal to all federal, state and local government web resources and services.